ZL3GL-4 Weather Reports


time (UTC)temp
F
wind
direction
speed
knots
gust
knots
rain 1hr
in
rain 24hr
in
rain mn
in
humidity
%
barometer
mb
20260509201341 52 193 1.7 1.7 0.00 0.06 0.00 100 993.7
20260509195937 52 207 3.5 1.7 0.00 0.06 0.00 100 993.4
20260509194534 51 183 2.6 1.7 0.00 0.06 0.00 100 993.2
20260509193130 50 188 3.5 4.3 0.00 0.06 0.00 100 992.9
20260509191727 50 262 0.0 1.7 0.00 0.06 0.00 100 992.2
20260509190326 50 217 0.0 0.0 0.00 0.06 0.00 100 991.8
20260509184921 51 281 1.7 0.9 0.00 0.06 0.00 100 991.7
20260509183517 51 287 0.9 0.9 0.00 0.06 0.00 100 991.6
20260509182112 52 285 0.0 0.0 0.00 0.06 0.00 100 991.7
20260509180709 53 273 0.9 0.9 0.00 0.06 0.00 100 991.3
20260509175307 53 294 0.0 0.0 0.00 0.06 0.00 100 991.2
20260509173902 53 294 0.0 0.0 0.00 0.06 0.00 100 991.1
20260509172502 53 322 0.9 0.0 0.00 0.06 0.00 100 990.9
20260509171058 53 124 0.0 0.0 0.00 0.06 0.00 100 991.0
20260509165658 53 222 0.0 0.0 0.00 0.06 0.00 100 990.9
20260509164249 53 205 0.9 1.7 0.00 0.06 0.00 100 990.7
20260509161443 53 152 1.7 3.5 0.00 0.06 0.00 100 990.6
20260509160039 54 208 2.6 2.6 0.00 0.06 0.00 100 990.5
20260509154636 54 159 3.5 0.0 0.00 0.06 0.00 100 990.9
20260509153232 54 200 4.3 1.7 0.00 0.06 0.00 100 990.7
20260509151832 54 146 4.3 3.5 0.00 0.06 0.00 100 990.6
20260509150426 54 186 7.8 6.1 0.00 0.06 0.00 100 990.7
20260509143618 54 197 5.2 5.2 0.00 0.06 0.00 66 990.5
20260509142213 55 277 2.6 1.7 0.00 0.06 0.00 63 989.9
20260509140810 54 291 2.6 2.6 0.00 0.06 0.00 65 990.0
20260509135406 54 297 3.5 4.3 0.00 0.06 0.00 66 989.9
20260509134006 54 284 2.6 2.6 0.00 0.06 0.00 65 989.8
20260509132604 55 304 3.5 3.5 0.00 0.06 0.00 62 989.9
20260509125754 56 315 3.5 2.6 0.00 0.06 0.00 60 990.4
20260509124354 57 319 4.3 4.3 0.00 0.06 0.00 60 990.4
20260509122947 58 291 5.2 7.0 0.00 0.06 0.00 57 990.6
20260509121547 59 316 7.0 4.3 0.00 0.06 0.00 54 990.7
20260509114739 58 345 2.6 6.1 0.00 0.21 0.06 56 991.2
20260509113335 57 305 4.3 5.2 0.00 0.21 0.06 59 991.5
20260509111932 57 335 5.2 3.5 0.00 0.21 0.06 58 991.7
20260509110527 58 304 4.3 2.6 0.00 0.21 0.06 59 991.8
20260509105124 58 290 6.1 4.3 0.00 0.21 0.06 57 992.1
20260509103720 58 301 4.3 5.2 0.00 0.21 0.06 60 992.1
20260509102317 58 318 5.2 2.6 0.00 0.21 0.06 59 992.3
20260509100913 58 277 5.2 3.5 0.00 0.21 0.06 58 992.1
20260509095513 59 274 5.2 5.2 0.00 0.21 0.06 58 992.3
20260509094108 58 293 5.2 6.1 0.00 0.21 0.06 58 992.2
20260509092704 58 290 7.8 7.0 0.00 0.21 0.06 58 992.0
20260509091300 57 295 7.0 7.0 0.00 0.21 0.06 62 992.0
20260509085857 56 260 5.2 3.5 0.00 0.21 0.06 68 992.1
20260509081651 51 305 3.5 4.3 0.00 0.21 0.06 100 991.8
20260509080250 52 339 3.5 3.5 0.00 0.21 0.06 100 991.9
20260509074842 52 222 1.7 0.0 0.00 0.21 0.06 100 991.7
20260509073439 53 225 0.9 0.0 0.00 0.21 0.06 100 991.9
20260509072035 53 239 4.3 2.6 0.00 0.21 0.06 100 992.2
20260509070632 53 238 2.6 1.7 0.00 0.21 0.06 100 992.0
20260509065227 53 94 3.5 1.7 0.00 0.21 0.06 100 991.8
20260509063825 53 257 0.9 1.7 0.00 0.21 0.06 100 991.7
20260509062424 54 302 0.0 0.0 0.00 0.21 0.06 100 991.5
20260509061017 54 346 0.9 0.0 0.00 0.21 0.06 100 991.4
20260509055616 55 34 0.0 0.0 0.00 0.21 0.06 100 991.3
20260509054213 55 70 4.3 5.2 0.00 0.21 0.06 100 991.0
20260509052813 55 104 0.9 2.6 0.00 0.21 0.06 100 991.3
20260509051409 56 153 0.9 1.7 0.00 0.21 0.06 100 991.3
20260509050006 56 77 2.6 2.6 0.00 0.21 0.06 100 991.2
20260509044604 56 49 4.3 5.2 0.00 0.21 0.06 100 991.4
20260509043202 56 8 4.3 2.6 0.00 0.21 0.06 100 991.6
20260509041759 57 39 7.8 6.1 0.00 0.21 0.06 100 991.7
20260509040353 57 82 7.0 8.7 0.00 0.21 0.06 100 991.6
20260509033546 57 65 8.7 7.0 0.00 0.21 0.06 100 991.8
20260509032143 58 63 7.8 7.8 0.00 0.21 0.06 100 991.8
20260509030739 58 51 7.8 5.2 0.00 0.21 0.06 98 991.7
20260509025336 58 86 8.7 9.6 0.00 0.21 0.06 96 991.7
20260509023932 59 49 7.8 8.7 0.00 0.21 0.06 95 991.6
20260509022529 59 46 8.7 10.4 0.00 0.21 0.06 93 991.3
20260509021126 59 60 7.8 7.0 0.00 0.21 0.06 92 991.3
20260509015721 59 69 7.8 9.6 0.00 0.21 0.06 92 991.4
20260509014317 60 96 7.8 7.8 0.00 0.21 0.06 93 991.4
20260509012914 60 83 7.0 10.4 0.00 0.21 0.06 94 991.5
20260509011509 61 82 7.0 7.8 0.00 0.21 0.06 89 991.6
20260509010106 62 45 5.2 4.3 0.00 0.21 0.06 83 991.8
20260509004702 61 23 5.2 6.1 0.00 0.21 0.06 84 991.8
20260509003259 60 17 5.2 6.1 0.00 0.21 0.06 87 991.6
20260509001855 60 28 8.7 6.1 0.00 0.21 0.06 87 991.6
20260509000451 60 52 6.1 4.3 0.00 0.21 0.06 90 991.9
20260508235047 60 28 5.2 7.8 0.00 0.21 0.06 93 992.2
20260508233644 59 30 8.7 8.7 0.00 0.21 0.06 94 992.0
20260508232239 59 32 4.3 4.3 0.00 0.21 0.06 96 992.5
20260508230836 59 3 4.3 3.5 0.00 0.21 0.06 98 992.6
20260508225432 58 13 4.3 4.3 0.00 0.21 0.06 100 992.9
20260508224029 58 1 5.2 4.3 0.00 0.21 0.06 100 992.7
20260508222624 57 347 4.3 5.2 0.00 0.21 0.06 100 992.8
20260508221222 57 312 4.3 3.5 0.00 0.21 0.06 100 992.7
20260508215818 56 346 4.3 2.6 0.00 0.21 0.06 100 992.8
20260508214418 55 330 2.6 4.3 0.00 0.21 0.06 100 992.6
20260508213013 54 291 3.5 3.5 0.00 0.21 0.06 100 992.5
20260508211610 55 335 1.7 2.6 0.00 0.21 0.06 100 992.4
20260508210206 55 349 3.5 3.5 0.00 0.21 0.06 100 992.1
20260508204802 55 340 2.6 5.2 0.00 0.21 0.06 100 992.0
20260508203404 54 301 2.6 2.6 0.00 0.21 0.06 100 991.7
20260508201959 54 314 4.3 5.2 0.00 0.21 0.06 100 991.4